CZ-6A DEB, 61306

Orbit data source: Space-Track

CZ-6A DEB, 61306 is space debris in LEO originally from a launch on Tue, 06 Aug 2024 UTC launched from the Taiyaun Space Center, China (TSC). Debris objects in space refer to the collection of defunct objects orbiting the Earth. Examples of debris include non-operational satellites, rocket bodies, and fragments generated from explosions, collisions, or faulty payload assembly.

Loading next visibility...
Identifier
61306, 2024-140TT
Orbit
LEO
Country
Flag of CNCN / PRC
Related business
Manufacturer
SAST
Mission
Spacecraft
Bus & Motor
Unknown
Mass
Unknown
Launch date (UTC)
2024-08-06 (2 years ago)
Launch vehicle
Unknown
Launch site
Taiyaun Space Center, China (TSC)
Object type
Payload
Rocket body
Debris
Shape & HBR
Unknown shape, 1.1 m
Radar Cross Section
Medium (>0.1 m² and <1 m²)

Expand to show TLE details & history
Last TLE update: 19 hours ago

TLE from 19 hours ago
0 CZ-6A DEB
1 61306U 24140TT  26171.04434120  .00003343  00000-0  95111-3 0  9995
2 61306  88.1106 198.5491 0023398 342.7296  17.3108 14.44975506 95118
Epoch: 2026-06-20T01:03Z
TLE epoch observation values (Epoch: 2026-06-20T01:03:51.079Z)
Latitude
-0.00011°
Longitude
-85.67835°
Altitude
729.285 km
Speed
7.499 km/s
True Right ascension
13h 14m 11s
True Declination
0° 00' 00"
Sunlit
Object was in daylight at epoch
Visualization orbit readout
Latitude
Unknown
Longitude
Unknown
Altitude
Unknown
Speed
Unknown
Apparent Right ascension
Unknown
Apparent Declination
Unknown
Sunlit
N/A
Visualization observer readout
Local Sidereal Time
07:19:23
Azimuth
Unknown
Elevation
Unknown
Doppler factor
Unknown
Orbital elements
Apogee altitude
755.682 km
Perigee altitude
722.377 km
Semi-major axis
7,117.166 km
Eccentricity
0.00234
Inclination
88.1106°
RAAN
198.5491°
Arg. of periapsis
342.7296°
True anomaly
17.3908°
Mean anomaly
17.3108°
Eccentric anomaly
17.35078°
Mean motion
3.61479 °/min
Orbital period
99.59 mins
BSTAR
0.00095111
Loading maneuver chart data...
Computing Atmospheric mass density...
Loading historical data...
Loading historical data...
Loading historical data...
Loading historical data...
Loading historical data...
Loading historical data...
Loading historical data...

Documentation

Showing up to 5 results
|